Tracking 20242 objects as of 24-Jan-2020
HD Live streaming from Space Station
objects crossing your sky now

COSMOS 2251 DEB

Track COSMOS 2251 DEB now!
10-day predictions


NORAD ID: 35831
Int'l Code: 1993-036ATD
Perigee: 714.6 km
Apogee: 771.9 km
Inclination: 74.0 °
Period: 99.5 minutes
Semi major axis: 7114 km
RCS: 0.007 m2 (small)
Launch date: June 16, 1993
Source: Commonwealth of Independent States (former USSR) (CIS)
Launch site: PLESETSK MISSILE AND SPACE COMPLEX (PKMTR)

Note: This is SATELLITE DEBRIS
aabbcc
Your satellite tracking list
Your tracking list is empty




NASA's NSSDC Master Catalog

Two Line Element Set (TLE):
1 35831U 93036ATD 20022.92532714  .00001108  00000-0  31025-3 0  9994
2 35831  74.0106 231.0926 0040264  92.4863 268.0905 14.46811449557099
Source of the keplerian elements: AFSPC